Flag for U.S.A. Weather past 2 weeks in Abilene, Texas, U.S.A.

Now
62 °F

Fog.


Feels Like: 62 °F
Forecast: 58 / 72 °F
Wind: 13 mph from South

Location: Abilene Regional Airport

Current Time: May 22, 2015 at 11:56:35 AM

Latest Report: May 22, 2015 at 10:52 AM


Visibility: 4 mi

Pressure: 30.08 "Hg

Humidity: 93%

Dew point: 60 °F

Location of AbileneLocation

Historic Weather in Abilene — Graph

°F

Abilene temperature yesterday

Maximum temperature yesterday: 63 °F (at 3:52 PM)
Minimum temperature yesterday: 53 °F (at 6:52 AM)
Average temperature yesterday: 58 °F

Past Weeks' High & Low Weather Summary

 TemperatureHumidityPressure
High92 °F (May 9, 5:52 PM)100% (May 13, 10:52 AM)30.28 "Hg (May 13, 10:52 AM)
Low53 °F (May 21, 6:52 AM)16% (May 10, 4:52 PM)29.60 "Hg (May 16, 6:52 PM)
Average70 °F74%29.92 "Hg
* Reported May 7 10:52 AM — May 22 10:52 AM, Abilene, Weather by CustomWeather, © 2015

Note: Actual official high and low records may vary slightly from our data, if they occured in-between our weather recording intervals... More about our weather records

Advertising

Abilene weather history for previous 24 hours

 ConditionsComfort  
Time TempWeatherWind HumidityBarometerVisibility
10:52 AM
Fri, May 22
62 °FFog.13 mph93%30.08 "Hg4 mi
9:52 AM61 °FFog.13 mph93%30.08 "Hg4 mi
8:52 AM60 °FFog.6 mph93%30.09 "Hg6 mi
8:01 AM59 °FLow clouds.9 mph96%30.12 "Hg10 mi
6:52 AM59 °FLow clouds.8 mph93%30.07 "Hg10 mi
5:52 AM59 °FFog.9 mph93%30.07 "Hg3 mi
4:52 AM58 °FFog.9 mph97%30.06 "Hg6 mi
4:03 AM58 °FLow clouds.8 mph93%30.10 "Hg9 mi
3:52 AM59 °FLow clouds.8 mph90%30.06 "Hg9 mi
2:52 AM58 °FLow clouds.9 mph93%30.08 "Hg10 mi
1:52 AM58 °FFog.7 mph93%30.10 "Hg4 mi
12:52 AM57 °FFog.7 mph93%30.09 "Hg4 mi
12:01 AM58 °FOvercast.8 mph87%30.14 "Hg9 mi
10:52 PM
Thu, May 21
59 °FOvercast.6 mph81%30.13 "Hg10 mi
9:52 PM59 °FOvercast.6 mph81%30.12 "Hg10 mi
8:52 PM60 °FOvercast.12 mph78%30.11 "Hg10 mi
7:52 PM61 °FOvercast.12 mph75%30.11 "Hg10 mi
6:52 PM62 °FMostly cloudy.9 mph73%30.12 "Hg10 mi
5:52 PM63 °FOvercast.9 mph70%30.11 "Hg10 mi
4:52 PM63 °FOvercast.8 mph68%30.15 "Hg10 mi
3:52 PM63 °FOvercast.8 mph68%30.16 "Hg10 mi
2:52 PM62 °FOvercast.12 mph67%30.17 "Hg10 mi
1:52 PM60 °FMostly cloudy.7 mph72%30.20 "Hg10 mi
1:00 PM57 °FOvercast.6 mph78%30.24 "Hg10 mi
11:52 AM55 °FLow clouds.12 mph83%30.22 "Hg10 mi
Weather by CustomWeather, © 2015

See weather overviewHow to use our weather pages